IRIDIUM 164 (43577 NORAD) Tracking and Keplerian Element Data

This shows tracking and keplerian element data for the satellite.

Feedback or suggestion? Click here.




ElementValue
Catalog43577
NameIRIDIUM 164
Epoch Orbit21861
Epoch Day270.07742407
Epoch Year2022
RAAN264.6784
Inclination86.3915
Eccentricity0.0001988
Argument of Perigee85.6502
Mean Anonmoly274.492
Mean Motion14.34215958
Decay Rate9.9E-07
L11 43577U 18061J 22270.07742407 .00000099 00000+0 28228-4 0 9999
L22 43577 86.3915 264.6784 0001988 85.6502 274.4920 14.34215958218617

Live tracking and technical data element details for IRIDIUM 164 (NORAD 43577). IRIDIUM 164 can be tracked NOW for your location showing map with azimuth and elevation plus other details from your city location.

Track the satellite on the map from your city or location and see movement details for azimuth, elevation, latitude, longitude, range, height, and movement on the map or in text.







IsCatalogInMostPopularTable: catalog: 43577, numindb: 629
Update: records affected: 1



GetName: 43577 IRIDIUM 164

Hit Count: updated at: Fri, 30 Sep 2022 03:33:09 GMT